Kenosha Regional Airport Kenosha US
ICAO: KENW
IATA: ENW
Category: Medium
Scheduled Services: No

Elevation: 742 ft
TransAlt. 18000 ft.

Airport Communications:
MILWAUKEE APP/DEP:120.15
ASOS:127.175
ATIS:127.175
CLNC DEL:118.6
CTAF:118.6
GND:121.875
GREEN BAY RDO:109.2
TWR:118.6
UNICOM:122.95

KENW Zoom In..

If you have problems with the map follow the link
https://www.worldairports.se/pages/airport.php?
ICAO=KENW

Runways:

(A) RW 07L length 5499 ft width 100 ft
ILS 109.35 / hdg 66

(B) RW 07R length 3302 ft width 75 ft
---- / hdg 66

(C) RW 15 length 4440 ft width 100 ft
---- / hdg 146

(D) RW 25L length 3302 ft width 75 ft
---- / hdg 246

(E) RW 25R length 5499 ft width 100 ft
---- / hdg 246

(F) RW 33 length 4440 ft width 100 ft
---- / hdg 326

Location; KENW
Day. 14 / Time. 20.53 Zulu
* Altimeter: 30.19
* Temperature: 05° c. 41°f.
* Wind from: 330° Speed 07 kn.
Dewpoint: 02° c.
Visibility: 3 Statute Miles.
Clouds: Clear (automated report).
Conditions: Haze.

KENW 142053Z 33007KT 3SM HZ CLR 05/02 A3019 RMK AO2 SLP228 T00500017 53006


Wind From 330°
Speed 07 kn.

 
 
jpsmedia.com for Web Design worldairports.se 2018   terms of use